Location: Bagnolo San Vito
(45.0833°N, 10.8833°E)
Time: 23:16:19
(UTC+00:00)

Cosmos 2219 Rocket - Pass Details

Date: 03 March 2021
Orbit: 826 x 848 km, 71.0° (Epoch: 17 April)

Event Time Altitude Azimuth Distance (km) Brightness Sun altitude
Rises 19:22:58 0° 203° (SSW) 3,352 5.4 -24.6°
Reaches altitude 10° 19:25:23 10° 203° (SSW) 2,424 4.6 -25.0°
Maximum altitude 19:30:57 89° 112° (ESE) 836 2.0 -26.0°
Drops below altitude 10° 19:36:35 10° 26° (NNE) 2,451 4.5 -26.9°
Sets 19:39:02 0° 27° (NNE) 3,392 5.3 -27.3°
